Weather History for K2C8 - September, 2012

Change the Weather History Date:

Friday, September 21, 2012

  Actual Average (KGAF) Record (KGAF)
Temperature  
Mean Temperature 46 °F -  
Max Temperature 59 °F 65 °F 84 °F (1960)
Min Temperature 32 °F 42 °F 27 °F (1971)
Degree Days  
Heating Degree Days 20    
Moisture  
Dew Point 32 °F    
Average Humidity 62    
Maximum Humidity 100    
Minimum Humidity 36    
Precipitation  
Precipitation 0.00 in - - ()
Sea Level Pressure  
Sea Level Pressure 29.94 in    
Wind  
Wind Speed 10 mph (NW)    
Max Wind Speed 31 mph    
Max Gust Speed 43 mph    
Visibility 10 miles    
Events Rain , Thunderstorm    
Averages and records for this station are not official NWS values.
T = Trace of Precipitation, MM = Missing Value Source: NWS Daily Summary

Daily Weather History Graph

Daily Weather History Graph

Search for Another Location

Airport or City:

Trip Planner

Search our weather history database for the weather conditions in past years. The results will help you decide how hot, cold, wet, or windy it might be!

Date:

Astronomy

Sep. 21, 2012 Rise Set
Actual Time 7:16 AM CDT 7:29 PM CDT
Civil Twilight 6:44 AM CDT 8:00 PM CDT
Nautical Twilight 6:07 AM CDT 8:37 PM CDT
Astronomical Twilight 5:29 AM CDT 9:16 PM CDT
Moon 2:10 PM CDT (9/21) 11:00 PM CDT (9/21)
Length of Visible Light 13h 15m
Length of Day
12h 12m
Waxing Crescent, 37% of the Moon is Illuminated
Sep 21
Waxing Crescent
Sep 22
First Quarter
Sep 29
Full
Oct 8
Last Quarter
Oct 15
New

Hourly Weather History & Observations

Time (CDT) Temp. Windchill Dew Point Humidity Pressure Visibility Wind Dir Wind Speed Gust Speed Precip Events Conditions
12:15 AM 44.6 °F - 37.4 °F 76% 29.87 in 10.0 mi Calm Calm - N/A   Mostly Cloudy
12:35 AM 46.4 °F 45.2 °F 37.4 °F 71% 29.88 in 10.0 mi NW 3.5 mph - N/A   Mostly Cloudy
12:55 AM 46.4 °F 42.4 °F 37.4 °F 71% 29.88 in 10.0 mi West 8.1 mph - N/A   Overcast
1:15 AM 46.4 °F 44.3 °F 37.4 °F 71% 29.88 in 10.0 mi WNW 4.6 mph - N/A   Mostly Cloudy
1:35 AM 46.4 °F 44.3 °F 37.4 °F 71% 29.88 in 10.0 mi WNW 4.6 mph - N/A   Overcast
1:55 AM 46.4 °F 44.3 °F 37.4 °F 71% 29.88 in 10.0 mi West 4.6 mph - N/A   Mostly Cloudy
2:15 AM 46.4 °F 44.3 °F 37.4 °F 71% 29.88 in 10.0 mi NNW 4.6 mph - N/A   Mostly Cloudy
2:35 AM 44.6 °F 43.1 °F 37.4 °F 76% 29.88 in 10.0 mi North 3.5 mph - N/A   Partly Cloudy
2:55 AM 42.8 °F 41.1 °F 37.4 °F 81% 29.89 in 10.0 mi NNW 3.5 mph - N/A   Scattered Clouds
3:15 AM 41.0 °F 38.0 °F 35.6 °F 81% 29.88 in 10.0 mi West 4.6 mph - N/A   Mostly Cloudy
3:35 AM 41.0 °F 39.0 °F 37.4 °F 87% 29.88 in 10.0 mi WNW 3.5 mph - N/A   Mostly Cloudy
3:55 AM 39.2 °F 35.9 °F 35.6 °F 87% 29.88 in 10.0 mi WNW 4.6 mph - N/A   Mostly Cloudy
4:15 AM 39.2 °F - 35.6 °F 87% 29.88 in 10.0 mi Calm Calm - N/A   Mostly Cloudy
4:35 AM 37.4 °F 34.9 °F 32.0 °F 81% 29.89 in 10.0 mi NW 3.5 mph - N/A   Scattered Clouds
4:55 AM 37.4 °F 32.8 °F 32.0 °F 81% 29.89 in 9.0 mi WNW 5.8 mph - N/A   Scattered Clouds
5:15 AM 35.6 °F 30.7 °F 32.0 °F 87% 29.89 in 10.0 mi WNW 5.8 mph - N/A   Clear
5:35 AM 37.4 °F 32.8 °F 33.8 °F 87% 29.89 in 10.0 mi NNW 5.8 mph - N/A   Clear
5:55 AM 39.2 °F 35.0 °F 35.6 °F 87% 29.90 in 10.0 mi NW 5.8 mph - N/A   Clear
6:15 AM 35.6 °F 29.9 °F 32.0 °F 87% 29.90 in 10.0 mi WNW 6.9 mph - N/A   Clear
6:35 AM 35.6 °F 30.7 °F 32.0 °F 87% 29.90 in 10.0 mi NW 5.8 mph - N/A   Clear
6:55 AM 37.4 °F 34.9 °F 33.8 °F 87% 29.90 in 10.0 mi NW 3.5 mph - N/A   Clear
7:35 AM 32.0 °F 25.6 °F 32.0 °F 100% 29.91 in 10.0 mi WNW 6.9 mph - N/A Thunderstorm Clear
7:55 AM 35.6 °F 29.9 °F 32.0 °F 87% 29.91 in 5.0 mi West 6.9 mph - N/A   Clear
8:15 AM 39.2 °F 33.6 °F 35.6 °F 87% 29.90 in 10.0 mi West 8.1 mph - N/A   Clear
8:35 AM 41.0 °F 35.2 °F 37.4 °F 87% 29.90 in 10.0 mi West 9.2 mph - N/A   Clear
8:55 AM 44.6 °F 39.7 °F 37.4 °F 76% 29.91 in 10.0 mi WNW 9.2 mph - N/A   Clear
9:15 AM 46.4 °F 42.4 °F 37.4 °F 71% 29.91 in 10.0 mi WNW 8.1 mph - N/A   Clear
9:35 AM 50.0 °F - 39.2 °F 66% 29.91 in 10.0 mi WNW 8.1 mph - N/A   Clear
9:55 AM 51.8 °F - 37.4 °F 58% 29.90 in 10.0 mi WNW 10.4 mph - N/A   Clear
10:15 AM 53.6 °F - 35.6 °F 51% 29.90 in 10.0 mi NW 13.8 mph - N/A   Clear
10:35 AM 53.6 °F - 35.6 °F 51% 29.89 in 10.0 mi WNW 15.0 mph - N/A   Partly Cloudy
10:55 AM 55.4 °F - 35.6 °F 47% 29.89 in 10.0 mi WNW 13.8 mph 18.4 mph N/A   Partly Cloudy
11:15 AM 57.2 °F - 35.6 °F 44% 29.89 in 10.0 mi WNW 17.3 mph 23.0 mph N/A   Partly Cloudy
11:35 AM 57.2 °F - 33.8 °F 41% 29.87 in 10.0 mi NW 18.4 mph 24.2 mph N/A   Partly Cloudy
11:55 AM 57.2 °F - 32.0 °F 38% 29.86 in 10.0 mi WNW 15.0 mph 19.6 mph N/A   Scattered Clouds
12:15 PM 57.2 °F - 33.8 °F 41% 29.86 in 10.0 mi WNW 12.7 mph 21.9 mph N/A   Partly Cloudy
12:35 PM 59.0 °F - 32.0 °F 36% 29.86 in 10.0 mi NW 19.6 mph 29.9 mph N/A   Partly Cloudy
12:55 PM 59.0 °F - 32.0 °F 36% 29.85 in 10.0 mi WNW 18.4 mph 24.2 mph N/A   Scattered Clouds
1:15 PM 59.0 °F - 32.0 °F 36% 29.84 in 10.0 mi WNW 25.3 mph 33.4 mph N/A   Scattered Clouds
1:35 PM 59.0 °F - 32.0 °F 36% 29.84 in 10.0 mi NW 16.1 mph 24.2 mph N/A   Mostly Cloudy
1:55 PM 59.0 °F - 32.0 °F 36% 29.85 in 10.0 mi NNW 23.0 mph 33.4 mph N/A   Mostly Cloudy
2:15 PM 59.0 °F - 32.0 °F 36% 29.84 in 10.0 mi NNW 21.9 mph 32.2 mph N/A   Scattered Clouds
2:35 PM 57.2 °F - 33.8 °F 41% 29.85 in 9.0 mi NNW 23.0 mph 36.8 mph N/A   Mostly Cloudy
2:55 PM 48.2 °F - 41.0 °F 76% 29.89 in 4.0 mi North 29.9 mph 41.4 mph N/A Rain Light Rain
3:15 PM 46.4 °F 38.1 °F 37.4 °F 71% 29.91 in 9.0 mi North 24.2 mph 41.4 mph N/A Rain Light Rain
3:35 PM 48.2 °F - 35.6 °F 62% 29.92 in 10.0 mi North 21.9 mph 34.5 mph N/A   Mostly Cloudy
3:55 PM 50.0 °F - 33.8 °F 54% 29.92 in 10.0 mi North 24.2 mph 33.4 mph N/A   Mostly Cloudy
4:15 PM 50.0 °F - 32.0 °F 50% 29.93 in 10.0 mi North 31.1 mph 42.6 mph N/A Rain Light Rain
4:35 PM 46.4 °F 38.1 °F 32.0 °F 57% 29.95 in 10.0 mi North 24.2 mph 41.4 mph N/A Rain Light Rain
4:55 PM 46.4 °F 37.7 °F 30.2 °F 53% 29.97 in 10.0 mi North 26.5 mph 39.1 mph N/A Rain Light Rain
5:15 PM 46.4 °F 37.9 °F 28.4 °F 50% 29.98 in 10.0 mi North 25.3 mph 36.8 mph N/A Rain Light Rain
5:35 PM 46.4 °F 38.7 °F 26.6 °F 46% 29.99 in 10.0 mi North 20.7 mph 32.2 mph N/A   Partly Cloudy
5:55 PM 46.4 °F 37.9 °F 24.8 °F 43% 30.00 in 10.0 mi North 25.3 mph 38.0 mph N/A   Clear
6:15 PM 46.4 °F 38.5 °F 24.8 °F 43% 30.02 in 10.0 mi North 21.9 mph 38.0 mph N/A Rain Light Rain
6:35 PM 44.6 °F 35.3 °F 24.8 °F 46% 30.03 in 10.0 mi North 26.5 mph 36.8 mph N/A Rain Light Rain
6:55 PM 44.6 °F 36.6 °F 24.8 °F 46% 30.04 in 10.0 mi North 19.6 mph 31.1 mph N/A Rain Light Rain
7:15 PM 44.6 °F 36.4 °F 26.6 °F 49% 30.05 in 10.0 mi NNW 20.7 mph 29.9 mph N/A Rain Light Rain
7:35 PM 44.6 °F 36.4 °F 26.6 °F 49% 30.05 in 10.0 mi North 20.7 mph 28.8 mph N/A Rain Light Rain
7:55 PM 44.6 °F 37.4 °F 24.8 °F 46% 30.06 in 10.0 mi North 16.1 mph 27.6 mph N/A Rain Light Rain
8:15 PM 42.8 °F 34.8 °F 26.6 °F 53% 30.08 in 10.0 mi North 17.3 mph 26.5 mph N/A Rain Light Rain
8:35 PM 42.8 °F 34.5 °F 24.8 °F 49% 30.09 in 10.0 mi North 18.4 mph 25.3 mph N/A Rain Light Rain
8:55 PM 42.8 °F 35.4 °F 26.6 °F 53% 30.09 in 10.0 mi North 15.0 mph 25.3 mph N/A Rain Light Rain
9:15 PM 41.0 °F 33.1 °F 26.6 °F 57% 30.10 in 10.0 mi North 15.0 mph 24.2 mph N/A Rain Light Rain
9:35 PM 41.0 °F 32.8 °F 26.6 °F 57% 30.11 in 10.0 mi North 16.1 mph 23.0 mph N/A Rain Light Rain
9:55 PM 41.0 °F 32.5 °F 28.4 °F 61% 30.11 in 10.0 mi North 17.3 mph 21.9 mph N/A Rain Light Rain
10:15 PM 41.0 °F 32.8 °F 28.4 °F 61% 30.12 in 10.0 mi NNW 16.1 mph 23.0 mph N/A Rain Light Rain
10:35 PM 41.0 °F 33.5 °F 28.4 °F 61% 30.13 in 10.0 mi NNW 13.8 mph 19.6 mph N/A Rain Light Rain
10:55 PM 41.0 °F 33.1 °F 28.4 °F 61% 30.14 in 10.0 mi NNW 15.0 mph 20.7 mph N/A Rain Light Rain
11:15 PM 41.0 °F 33.5 °F 28.4 °F 61% 30.14 in 10.0 mi North 13.8 mph - N/A Rain Light Rain
11:35 PM 41.0 °F 33.9 °F 28.4 °F 61% 30.15 in 10.0 mi North 12.7 mph 18.4 mph N/A Rain Light Rain
11:55 PM 41.0 °F 34.3 °F 28.4 °F 61% 30.16 in 10.0 mi North 11.5 mph 19.6 mph N/A Rain Light Rain